Change the Weather History Date:

Sunday, July 7, 2013

  Actual Average Record
Temperature  
Mean Temperature 61 °F 60 °F  
Max Temperature 64 °F 67 °F 93 °F (2010)
Min Temperature 58 °F 53 °F 39 °F (1971)
Degree Days  
Heating Degree Days 4 5  
Month to date heating degree days 17 41  
Since 1 June heating degree days 198 283  
Since 1 July heating degree days 17 41  
Cooling Degree Days 0 0  
Month to date cooling degree days 0 0  
Year to date cooling degree days 4 0  
Since 1 June cooling degree days 3 0  
Growing Degree Days 10 (Base 50)    
Moisture  
Dew Point 53 °F    
Average Humidity 79    
Maximum Humidity 86    
Minimum Humidity 72    
Precipitation  
Precipitation 0.00 in 0.05 in 1.72 in (1976)
Month to date precipitation T 0.32  
Year to date precipitation 34.97 36.23  
Snow  
Snow 0.00 in - - ()
Month to date snowfall 0.0  
Since 1 June snowfall 0.0  
Snow Depth 0.00 in    
Sea Level Pressure  
Sea Level Pressure 29.99 in    
Wind  
Wind Speed 7 mph (NW)    
Max Wind Speed 14 mph    
Max Gust Speed 15 mph    
Visibility 10 miles    
Events      
T = Trace of Precipitation, MM = Missing Value Source: NWS Daily Summary

Daily Weather History Graph

Daily Weather History Graph

Search for Another Location

Airport or City:

Trip Planner

Search our weather history database for the weather conditions in past years. The results will help you decide how hot, cold, wet, or windy it might be!

Date:

Astronomy

Jul. 07, 2013 Rise Set
Actual Time 5:32 AM PDT 9:08 PM PDT
Civil Twilight 4:54 AM PDT 9:46 PM PDT
Nautical Twilight 4:03 AM PDT 10:36 PM PDT
Astronomical Twilight 2:55 AM PDT 11:44 PM PDT
Moon 5:17 AM PDT (7/7) 8:31 PM PDT (7/7)
Length of Visible Light 16h 51m
Length of Day
15h 36m
Waning Crescent, 0% of the Moon is Illuminated
Jul 7
Waning Crescent
Jul 8
New
Jul 15
First Quarter
Jul 22
Full
Jul 29
Last Quarter

Hourly Weather History & Observations

Time (PDT) Temp. Dew Point Humidity Pressure Visibility Wind Dir Wind Speed Gust Speed Precip Events Conditions
12:16 AM 59.0 °F 53.6 °F 82% 29.96 in 10.0 mi NNW 10.4 mph - N/A   Mostly Cloudy
12:55 AM 59.0 °F 54.0 °F 83% 29.96 in 10.0 mi WNW 6.9 mph - N/A   Overcast
1:55 AM 59.0 °F 54.0 °F 83% 29.96 in 10.0 mi Variable 5.8 mph - N/A   Overcast
2:55 AM 59.0 °F 53.1 °F 81% 29.96 in 10.0 mi NNW 8.1 mph - N/A   Overcast
3:55 AM 59.0 °F 53.1 °F 81% 29.96 in 10.0 mi WNW 4.6 mph - N/A   Overcast
4:16 AM 57.2 °F 53.6 °F 88% 29.96 in 10.0 mi West 6.9 mph - N/A   Overcast
4:55 AM 57.9 °F 53.1 °F 84% 29.97 in 10.0 mi NW 5.8 mph - N/A   Overcast
5:07 AM 59.0 °F 51.8 °F 77% 29.97 in 10.0 mi NW 6.9 mph - N/A   Overcast
5:55 AM 57.9 °F 53.1 °F 84% 29.98 in 10.0 mi West 4.6 mph - N/A   Overcast
6:55 AM 57.9 °F 53.1 °F 84% 29.98 in 10.0 mi West 4.6 mph - N/A   Overcast
7:55 AM 59.0 °F 53.1 °F 81% 29.98 in 10.0 mi WNW 4.6 mph - N/A   Overcast
8:55 AM 60.1 °F 53.1 °F 78% 29.99 in 10.0 mi WNW 5.8 mph - N/A   Overcast
9:55 AM 61.0 °F 53.1 °F 75% 29.99 in 10.0 mi NW 5.8 mph - N/A   Overcast
10:55 AM 62.1 °F 53.1 °F 72% 29.99 in 10.0 mi NW 8.1 mph - N/A   Overcast
11:55 AM 62.1 °F 54.0 °F 75% 29.99 in 10.0 mi WNW 5.8 mph - N/A   Overcast
12:55 PM 63.0 °F 53.1 °F 70% 30.00 in 10.0 mi WNW 6.9 mph - N/A   Overcast
1:55 PM 62.1 °F 54.0 °F 75% 30.00 in 10.0 mi WNW 9.2 mph - N/A   Overcast
2:55 PM 63.0 °F 55.0 °F 75% 29.99 in 10.0 mi NNW 11.5 mph - N/A   Overcast
3:55 PM 63.0 °F 53.1 °F 70% 29.99 in 10.0 mi NW 10.4 mph - N/A   Overcast
4:55 PM 63.0 °F 54.0 °F 72% 29.99 in 10.0 mi NW 9.2 mph - N/A   Overcast
5:55 PM 62.1 °F 53.1 °F 72% 29.98 in 10.0 mi WNW 9.2 mph - N/A   Overcast
6:55 PM 61.0 °F 53.1 °F 75% 29.99 in 10.0 mi WNW 6.9 mph - N/A   Overcast
7:55 PM 60.1 °F 52.0 °F 75% 30.00 in 10.0 mi NW 5.8 mph - N/A   Overcast
8:55 PM 59.0 °F 52.0 °F 78% 30.01 in 10.0 mi NW 10.4 mph - N/A   Overcast
9:55 PM 59.0 °F 52.0 °F 78% 30.01 in 10.0 mi NW 8.1 mph - N/A   Overcast
10:55 PM 59.0 °F 52.0 °F 78% 30.02 in 10.0 mi WNW 9.2 mph - N/A   Overcast
11:55 PM 57.9 °F 51.1 °F 78% 30.02 in 10.0 mi West 4.6 mph - N/A   Overcast